Showing default

GONETS M 19, 46488

Orbit data source: Space-Track

GONETS M 19, 46488 is a payload satellite owned by Gonets (CIS) in LEO that was launched on Mon, 28 Sep 2020 UTC via a SOYUZ-2-1B launch vehicle from the Plesetsk Missile And Space Complex (PKMTR). Payload-class satellites include a variety of spacecraft equipped with specific instruments for various scientific and technological missions. These include communications satellites like Starlink; space stations such as the ISS; scientific satellites like the Hubble; Earth observation satellites from companies like Planet Labs, Umbra, and HawkEye 360; GPS; miniature CubeSats for education and research; and military/defense satellites.

Loading next visibility...
Identifier
46488, 2020-068C
Orbit
LEO
Country
Flag of CISCIS
Related business
Manufacturer
Resehetnev ISS
Mission
Operational Commercial Communications
Bus & Motor
STRELA-3M, Unknown motor
Mass
225 kg wet, 225 kg dry
Launch date (UTC)
2020-09-28 (6 years ago)
Launch vehicle
SOYUZ-2-1B
Launch site
Plesetsk Missile And Space Complex (PKMTR)
Object type
Payload
Rocket body
Debris
Shape & HBR
Cyl + 1 Ant, 3.5 m
Radar Cross Section
1.798 m², Large (>1 m²)

Expand to show TLE details & history
Last TLE update: 14 hours ago

TLE from 14 hours ago
0 GONETS M 19
1 46488U 20068C   26170.88538352 -.00000017  00000-0 -19328-3 0  9990
2 46488  82.4969 345.3909 0014161  44.3245 315.8965 12.42892023259587
Epoch: 2026-06-19T21:14Z
TLE epoch observation values (Epoch: 2026-06-19T21:14:57.136Z)
Latitude
-0.0001°
Longitude
118.54488°
Altitude
1,489.068 km
Speed
7.123 km/s
True Right ascension
23h 01m 33s
True Declination
0° 00' 00"
Sunlit
Object was in daylight at epoch
Visualization orbit readout
Latitude
Unknown
Longitude
Unknown
Altitude
Unknown
Speed
Unknown
Apparent Right ascension
Unknown
Apparent Declination
Unknown
Sunlit
N/A
Visualization observer readout
Local Sidereal Time
21:51:27
Azimuth
Unknown
Elevation
Unknown
Doppler factor
Unknown
Orbital elements
Apogee altitude
1,502.863 km
Perigee altitude
1,480.574 km
Semi-major axis
7,869.856 km
Eccentricity
0.00142
Inclination
82.4969°
RAAN
345.3909°
Arg. of periapsis
44.3245°
True anomaly
315.78342°
Mean anomaly
315.8965°
Eccentric anomaly
315.83998°
Mean motion
3.1088 °/min
Orbital period
115.8 mins
BSTAR
-0.00019328
Loading maneuver chart data...
Computing Atmospheric mass density...
Loading historical data...
Loading historical data...
Loading historical data...
Loading historical data...
Loading historical data...
Loading historical data...
Loading historical data...

Documentation

Showing up to 5 results
|